• In Denmark
  • List of Countries
  • For 7 days
  • Water Temperature
  • Satellite Maps
  • Weather Map
  • Weather Widgets
  • user-avatar
    Login

    Hourly Weather Besmoynak

    Today, 18 October, Thursday

    Time Temperature Precipitation Wind Pressure Humidity
    00:00 -12°C° 0 mm 3 mps 637 mmHg 50%
    01:00 -12°C° 0 mm 3 mps 637 mmHg 46%
    02:00 -12°C° 0 mm 3 mps 637 mmHg 43%
    03:00 -10°C° 0 mm 3 mps 637 mmHg 42%
    04:00 -10°C° 0 mm 3 mps 636 mmHg 42%
    05:00 -10°C° 0 mm 3 mps 636 mmHg 45%
    06:00 -8°C° 0 mm 3 mps 636 mmHg 44%
    07:00 -7°C° 0 mm 3 mps 636 mmHg 43%
    08:00 -5°C° 0 mm 3 mps 636 mmHg 42%
    09:00 -2°C° 0 mm 3 mps 636 mmHg 41%
    10:00 0°C° 0 mm 3 mps 636 mmHg 40%
    11:00 +2°C° 0 mm 3 mps 636 mmHg 40%
    12:00 +3°C° 0 mm 2 mps 635 mmHg 41%
    13:00 +4°C° 0 mm 2 mps 635 mmHg 41%
    14:00 +5°C° 0 mm 2 mps 635 mmHg 42%
    15:00 +4°C° 0 mm 2 mps 634 mmHg 44%
    16:00 +3°C° 0 mm 2 mps 634 mmHg 47%
    17:00 +2°C° 0 mm 2 mps 633 mmHg 49%
    18:00 +2°C° 0 mm 2 mps 633 mmHg 50%
    19:00 +1°C° 0 mm 2 mps 633 mmHg 52%
    20:00 +1°C° 0 mm 2 mps 633 mmHg 53%
    21:00 +1°C° 0 mm 2 mps 633 mmHg 53%
    22:00 -1°C° 0 mm 2 mps 633 mmHg 54%
    23:00 -1°C° 0 mm 2 mps 633 mmHg 54%

    Tomorrow, 19 October, Friday

    Time Temperature Precipitation Wind Pressure Humidity
    00:00 -1°C° 0 mm 2 mps 633 mmHg 54%
    01:00 -1°C° 0 mm 2 mps 632 mmHg 54%
    02:00 -1°C° 0 mm 2 mps 632 mmHg 54%
    03:00 -2°C° 0 mm 2 mps 632 mmHg 55%
    04:00 0°C° 0 mm 1 mps 632 mmHg 55%
    05:00 0°C° 0 mm 1 mps 632 mmHg 56%
    06:00 +1°C° 0 mm 1 mps 633 mmHg 55%
    07:00 -1°C° 0 mm 2 mps 633 mmHg 55%
    08:00 +1°C° 0 mm 2 mps 633 mmHg 55%
    09:00 +2°C° 0 mm 2 mps 634 mmHg 53%
    10:00 +1°C° 0 mm 3 mps 634 mmHg 51%
    11:00 +2°C° 0 mm 3 mps 634 mmHg 49%
    12:00 +1°C° 0.1 mm 4 mps 634 mmHg 52%
    13:00 +1°C° 0.1 mm 4 mps 634 mmHg 54%
    14:00 +1°C° 0.1 mm 4 mps 634 mmHg 56%
    15:00 0°C° 0.1 mm 4 mps 634 mmHg 61%
    16:00 -1°C° 0.1 mm 4 mps 634 mmHg 66%
    17:00 -1°C° 0.1 mm 3 mps 634 mmHg 70%
    18:00 -1°C° 0 mm 3 mps 635 mmHg 69%
    19:00 -2°C° 0 mm 3 mps 635 mmHg 69%
    20:00 -2°C° 0 mm 3 mps 636 mmHg 68%
    21:00 -2°C° 0 mm 3 mps 636 mmHg 67%
    22:00 -2°C° 0 mm 3 mps 636 mmHg 65%
    23:00 -1°C° 0 mm 3 mps 636 mmHg 63%

    Day after tomorrow, 20 October, Saturday

    Time Temperature Precipitation Wind Pressure Humidity
    00:00 -1°C° 0 mm 2 mps 636 mmHg 63%
    01:00 -1°C° 0 mm 2 mps 636 mmHg 64%
    02:00 -1°C° 0 mm 2 mps 636 mmHg 64%
    03:00 -1°C° 0.1 mm 2 mps 637 mmHg 65%
    04:00 -1°C° 0.1 mm 2 mps 637 mmHg 65%
    05:00 -1°C° 0.1 mm 2 mps 637 mmHg 66%
    06:00 +1°C° 0 mm 2 mps 637 mmHg 64%
    07:00 +1°C° 0 mm 2 mps 637 mmHg 62%
    08:00 +2°C° 0 mm 2 mps 638 mmHg 60%
    09:00 +3°C° 0 mm 2 mps 638 mmHg 56%
    10:00 +4°C° 0 mm 2 mps 638 mmHg 52%
    11:00 +5°C° 0 mm 2 mps 638 mmHg 48%
    12:00 +6°C° 0.1 mm 2 mps 638 mmHg 48%
    13:00 +6°C° 0.1 mm 2 mps 638 mmHg 48%
    14:00 +6°C° 0.1 mm 2 mps 638 mmHg 48%
    15:00 +6°C° 0.1 mm 2 mps 638 mmHg 51%
    16:00 +5°C° 0.1 mm 2 mps 638 mmHg 54%
    17:00 +4°C° 0.1 mm 2 mps 638 mmHg 58%
    18:00 +4°C° 0 mm 2 mps 638 mmHg 59%
    19:00 +3°C° 0 mm 2 mps 638 mmHg 61%
    20:00 +2°C° 0 mm 2 mps 638 mmHg 63%
    21:00 +2°C° 0 mm 2 mps 638 mmHg 62%
    22:00 +2°C° 0 mm 2 mps 638 mmHg 62%
    23:00 +2°C° 0 mm 2 mps 638 mmHg 62%

    21 October, Sunday

    Time Temperature Precipitation Wind Pressure Humidity
    00:00 +1°C° 0 mm 2 mps 638 mmHg 61%
    01:00 +1°C° 0 mm 2 mps 638 mmHg 60%
    02:00 +1°C° 0 mm 2 mps 637 mmHg 58%
    03:00 +1°C° 0 mm 2 mps 637 mmHg 58%
    04:00 +1°C° 0 mm 2 mps 637 mmHg 57%
    05:00 +1°C° 0 mm 2 mps 637 mmHg 57%
    06:00 +2°C° 0 mm 2 mps 638 mmHg 55%
    07:00 +3°C° 0 mm 2 mps 638 mmHg 54%
    08:00 +4°C° 0 mm 2 mps 638 mmHg 52%
    09:00 +5°C° 0 mm 2 mps 638 mmHg 49%
    10:00 +7°C° 0 mm 2 mps 638 mmHg 45%
    11:00 +9°C° 0 mm 2 mps 638 mmHg 42%
    12:00 +9°C° 0 mm 2 mps 638 mmHg 40%
    13:00 +10°C° 0 mm 2 mps 638 mmHg 38%
    14:00 +10°C° 0 mm 2 mps 638 mmHg 36%
    15:00 +9°C° 0 mm 2 mps 638 mmHg 37%
    16:00 +8°C° 0 mm 2 mps 637 mmHg 39%
    17:00 +6°C° 0 mm 2 mps 637 mmHg 41%
    18:00 +6°C° 0 mm 2 mps 637 mmHg 42%
    19:00 +5°C° 0 mm 2 mps 637 mmHg 44%
    20:00 +4°C° 0 mm 2 mps 637 mmHg 46%
    21:00 +4°C° 0 mm 2 mps 637 mmHg 46%
    22:00 +4°C° 0 mm 2 mps 637 mmHg 46%
    23:00 +3°C° 0 mm 2 mps 636 mmHg 46%

    22 October, Monday

    Time Temperature Precipitation Wind Pressure Humidity
    00:00 +2°C° 0 mm 3 mps 636 mmHg 47%
    01:00 +2°C° 0 mm 3 mps 636 mmHg 47%
    02:00 +2°C° 0 mm 3 mps 636 mmHg 47%
    03:00 +2°C° 0 mm 3 mps 635 mmHg 47%
    04:00 +3°C° 0 mm 2 mps 635 mmHg 47%
    05:00 +2°C° 0 mm 2 mps 635 mmHg 47%
    06:00 +4°C° 0 mm 2 mps 636 mmHg 46%
    07:00 +5°C° 0 mm 2 mps 636 mmHg 44%
    08:00 +6°C° 0 mm 2 mps 636 mmHg 42%
    09:00 +8°C° 0 mm 2 mps 636 mmHg 38%
    10:00 +9°C° 0 mm 2 mps 636 mmHg 33%
    11:00 +12°C° 0 mm 2 mps 636 mmHg 29%
    12:00 +13°C° 0 mm 1 mps 636 mmHg 28%
    13:00 +13°C° 0 mm 1 mps 636 mmHg 26%
    14:00 +13°C° 0 mm 1 mps 636 mmHg 25%
    15:00 +12°C° 0 mm 1 mps 635 mmHg 27%
    16:00 +10°C° 0 mm 1 mps 635 mmHg 28%
    17:00 +9°C° 0 mm 1 mps 634 mmHg 30%
    18:00 +8°C° 0 mm 1 mps 634 mmHg 31%
    19:00 +6°C° 0 mm 2 mps 634 mmHg 32%
    20:00 +5°C° 0 mm 2 mps 634 mmHg 33%
    21:00 +5°C° 0 mm 2 mps 634 mmHg 33%
    22:00 +5°C° 0 mm 2 mps 634 mmHg 33%
    23:00 +5°C° 0 mm 2 mps 634 mmHg 33%

    23 October, Tuesday

    Time Temperature Precipitation Wind Pressure Humidity
    00:00 +5°C° 0 mm 2 mps 633 mmHg 34%
    01:00 +5°C° 0 mm 2 mps 633 mmHg 34%
    02:00 +4°C° 0 mm 2 mps 633 mmHg 35%
    03:00 +4°C° 0 mm 2 mps 633 mmHg 36%
    04:00 +4°C° 0 mm 2 mps 633 mmHg 36%
    05:00 +4°C° 0 mm 2 mps 633 mmHg 37%
    06:00 +5°C° 0 mm 2 mps 633 mmHg 36%
    07:00 +6°C° 0 mm 2 mps 634 mmHg 36%
    08:00 +7°C° 0 mm 2 mps 634 mmHg 35%
    09:00 +8°C° 0 mm 2 mps 635 mmHg 31%
    10:00 +10°C° 0 mm 2 mps 635 mmHg 26%
    11:00 +12°C° 0 mm 2 mps 635 mmHg 22%
    12:00 +12°C° 0 mm 2 mps 635 mmHg 23%
    13:00 +12°C° 0 mm 3 mps 635 mmHg 23%
    14:00 +12°C° 0 mm 3 mps 635 mmHg 24%
    15:00 +10°C° 0 mm 3 mps 635 mmHg 26%
    16:00 +9°C° 0 mm 2 mps 635 mmHg 29%
    17:00 +7°C° 0 mm 2 mps 635 mmHg 31%
    18:00 +6°C° 0 mm 2 mps 635 mmHg 32%
    19:00 +5°C° 0 mm 2 mps 635 mmHg 33%
    20:00 +4°C° 0 mm 2 mps 635 mmHg 34%
    21:00 +4°C° 0 mm 2 mps 635 mmHg 34%
    22:00 +4°C° 0 mm 2 mps 635 mmHg 34%
    23:00 +3°C° 0 mm 2 mps 635 mmHg 34%
    Show more